Location: Newark
(9.3150°S, 75.0000°W)
Time: 19:37:52
(UTC+00:00)

N. Korean satellite - Visible Passes

Search period start: 23 September 2020 00:00
Search period end: 03 October 2020 00:00
Orbit: 455 x 503 km, 97.2° (Epoch: 22 September)

Date Brightness Start Highest point End Pass type
(mag) Time Alt. Az. Time Alt. Az. Time Alt. Az.
23 Sep 8.9 09:37:00 10° NE 09:39:58 26° ESE 09:42:55 10° SSE visible
25 Sep 6.6 10:17:43 10° N 10:21:09 54° W 10:24:34 10° SSW visible
26 Sep 7.6 09:51:50 10° NNE 09:55:11 47° E 09:58:33 10° S visible
27 Sep 9.6 09:26:54 10° ENE 09:29:16 17° ESE 09:31:38 10° SE visible
29 Sep 6.4 10:06:56 10° N 10:10:24 87° WNW 10:13:51 10° SSW visible
30 Sep 8.6 09:41:22 10° NE 09:44:27 30° ESE 09:47:31 10° SSE visible
01 Oct 10.1 09:17:15 10° E 09:18:32 12° ESE 09:19:48 10° SE visible
